Change the Weather History Date:

Saturday, May 17, 2014

  Actual Average Record
Temperature  
Mean Temperature 64 °F -  
Max Temperature 73 °F 67 °F 87 °F (1977)
Min Temperature 50 °F 51 °F 37 °F (2003)
Degree Days  
Heating Degree Days 1    
Growing Degree Days 14 (Base 50)    
Moisture  
Dew Point 56 °F    
Average Humidity 80    
Maximum Humidity 97    
Minimum Humidity 36    
Precipitation  
Precipitation 0.59 in - - ()
Sea Level Pressure  
Sea Level Pressure 29.93 in    
Wind  
Wind Speed 15 mph (SSW)    
Max Wind Speed 28 mph    
Max Gust Speed 38 mph    
Visibility 8 miles    
Events Rain    
Averages and records for this station are not official NWS values.
T = Trace of Precipitation, MM = Missing Value Source: NWS Daily Summary

Daily Weather History Graph

Daily Weather History Graph

Search for Another Location

Airport or City:

Trip Planner

Search our weather history database for the weather conditions in past years. The results will help you decide how hot, cold, wet, or windy it might be!

Date:

Astronomy

May. 17, 2014 Rise Set
Actual Time 5:22 AM EDT 7:58 PM EDT
Civil Twilight 4:50 AM EDT 8:30 PM EDT
Nautical Twilight 4:10 AM EDT 9:10 PM EDT
Astronomical Twilight 3:25 AM EDT 9:56 PM EDT
Moon 10:56 PM EDT (5/17) 8:02 AM EDT (5/17)
Length of Visible Light 15h 40m
Length of Day
14h 36m
Waning Gibbous, 89% of the Moon is Illuminated
May 17
Waning Gibbous
May 21
Last Quarter
May 28
New
Jun 5
First Quarter
Jun 13
Full

Hourly Weather History & Observations

Time (EDT) Temp. Dew Point Humidity Pressure Visibility Wind Dir Wind Speed Gust Speed Precip Events Conditions
12:53 AM 63.0 °F 61.0 °F 93% 29.97 in 10.0 mi SSE 19.6 mph 27.6 mph N/A   Overcast
1:06 AM 63.0 °F 60.1 °F 90% 29.96 in 10.0 mi SSE 18.4 mph 27.6 mph N/A   Overcast
1:53 AM 64.0 °F 61.0 °F 90% 29.94 in 10.0 mi SSE 21.9 mph 31.1 mph N/A   Overcast
2:07 AM 64.0 °F 61.0 °F 90% 29.93 in 10.0 mi SSE 18.4 mph 28.8 mph N/A   Overcast
2:37 AM 63.0 °F 61.0 °F 93% 29.92 in 9.0 mi SSE 17.3 mph 28.8 mph N/A   Overcast
2:53 AM 63.0 °F 60.1 °F 90% 29.91 in 9.0 mi SSE 21.9 mph 31.1 mph N/A   Overcast
3:53 AM 63.0 °F 61.0 °F 93% 29.89 in 7.0 mi SSE 20.7 mph 29.9 mph N/A   Overcast
4:53 AM 64.0 °F 62.1 °F 93% 29.87 in 9.0 mi SSE 18.4 mph 31.1 mph 0.03 in   Overcast
5:12 AM 64.0 °F 62.1 °F 93% 29.87 in 10.0 mi SSE 20.7 mph 31.1 mph 0.01 in Rain Light Rain
5:53 AM 64.0 °F 62.1 °F 93% 29.86 in 4.0 mi SSE 21.9 mph 32.2 mph 0.11 in Rain Rain
6:03 AM 64.0 °F 62.1 °F 93% 29.86 in 2.5 mi SSE 27.6 mph 38.0 mph 0.06 in Rain Rain
6:12 AM 63.0 °F 62.1 °F 97% 29.87 in 4.0 mi SSE 23.0 mph 31.1 mph 0.07 in Rain Rain
6:24 AM 63.0 °F 62.1 °F 97% 29.88 in 3.0 mi South 17.3 mph 24.2 mph 0.11 in Rain Rain
6:53 AM 62.1 °F 61.0 °F 96% 29.89 in 3.0 mi SSW 12.7 mph - 0.36 in Rain Rain
7:00 AM 62.1 °F 60.1 °F 93% 29.90 in 5.0 mi SSW 11.5 mph 19.6 mph 0.01 in Rain Rain
7:11 AM 61.0 °F 59.0 °F 93% 29.90 in 9.0 mi SW 11.5 mph - 0.02 in Rain Light Rain
7:23 AM 61.0 °F 59.0 °F 93% 29.90 in 7.0 mi SW 9.2 mph 18.4 mph 0.04 in Rain Light Rain
7:34 AM 61.0 °F 59.0 °F 93% 29.90 in 1.8 mi WSW 4.6 mph - 0.09 in Rain Rain
7:37 AM 61.0 °F 59.0 °F 93% 29.89 in 3.0 mi SSW 4.6 mph - 0.09 in Rain Light Rain
7:53 AM 61.0 °F 59.0 °F 93% 29.90 in 10.0 mi SE 3.5 mph - 0.09 in   Overcast
8:23 AM 62.1 °F 60.1 °F 93% 29.91 in 8.0 mi SE 4.6 mph - N/A   Overcast
8:53 AM 63.0 °F 61.0 °F 93% 29.91 in 10.0 mi SSW 6.9 mph - N/A   Mostly Cloudy
9:53 AM 61.0 °F 57.9 °F 90% 29.93 in 10.0 mi SW 8.1 mph - N/A   Mostly Cloudy
10:30 AM 62.1 °F 57.9 °F 86% 29.94 in 10.0 mi WSW 8.1 mph - N/A   Mostly Cloudy
10:38 AM 63.0 °F 57.9 °F 84% 29.94 in 10.0 mi Variable 6.9 mph - N/A   Mostly Cloudy
10:48 AM 64.4 °F 57.2 °F 77% 29.94 in 10.0 mi WSW 9.2 mph - N/A   Mostly Cloudy
10:53 AM 64.9 °F 57.9 °F 78% 29.94 in 10.0 mi WSW 8.1 mph - N/A   Mostly Cloudy
11:41 AM 68.0 °F 57.9 °F 70% 29.94 in 10.0 mi West 8.1 mph - N/A   Scattered Clouds
11:53 AM 69.1 °F 57.9 °F 68% 29.94 in 10.0 mi WSW 9.2 mph - N/A   Partly Cloudy
12:53 PM 72.0 °F 54.0 °F 53% 29.94 in 10.0 mi WSW 6.9 mph - N/A   Clear
1:53 PM 73.0 °F 55.9 °F 55% 29.94 in 10.0 mi SSW 16.1 mph - N/A   Clear
2:53 PM 73.0 °F 52.0 °F 48% 29.95 in 10.0 mi South 16.1 mph - N/A   Clear
3:53 PM 71.6 °F 48.2 °F 43% 29.95 in 10.0 mi WSW 16.1 mph - N/A   Clear
4:53 PM 70.0 °F 42.1 °F 36% 29.96 in 10.0 mi SW 15.0 mph - N/A   Clear
5:53 PM 69.1 °F 45.0 °F 42% 29.96 in 10.0 mi SSW 16.1 mph - N/A   Clear
6:53 PM 64.9 °F 45.0 °F 48% 29.98 in 10.0 mi SW 11.5 mph - N/A   Clear
7:53 PM 60.1 °F 44.1 °F 55% 30.00 in 10.0 mi SW 8.1 mph - N/A   Clear
8:53 PM 57.9 °F 45.0 °F 62% 30.01 in 10.0 mi SW 6.9 mph - N/A   Clear
9:53 PM 55.4 °F 46.4 °F 72% 30.03 in 10.0 mi SW 6.9 mph - N/A   Clear
10:53 PM 55.0 °F 46.0 °F 72% 30.04 in 10.0 mi West 3.5 mph - N/A   Clear
11:53 PM 50.0 °F 46.0 °F 86% 30.05 in 10.0 mi Calm Calm - N/A   Clear